When you browse on this site, cookies collect data to enhance your experience and personalize the content and advertising you see.
Visit our Privacy Policy to learn more. By continuing to use the site, you agree to this use of cookies and data.
  • In Latvia
  • List of Countries
  • For 7 days
  • Water Temperature
  • Satellite Maps
  • Weather Map
  • Weather Widgets
  • user-avatar
    Login

    Hourly Weather Wiktoria

    Today, 26 May, Sunday

    Time Temperature Precipitation Wind Pressure Humidity
    00:00 +12°C° 1 mm 4 mps 748 mmHg 90%
    01:00 +11°C° 1 mm 3 mps 748 mmHg 90%
    02:00 +10°C° 0 mm 3 mps 749 mmHg 92%
    03:00 +9°C° 0 mm 3 mps 749 mmHg 93%
    04:00 +8°C° 0 mm 3 mps 749 mmHg 94%
    05:00 +8°C° 0 mm 3 mps 749 mmHg 94%
    06:00 +7°C° 0 mm 2 mps 749 mmHg 95%
    07:00 +7°C° 0 mm 2 mps 750 mmHg 95%
    08:00 +8°C° 0 mm 3 mps 750 mmHg 90%
    09:00 +9°C° 0 mm 3 mps 750 mmHg 85%
    10:00 +11°C° 0 mm 4 mps 750 mmHg 78%
    11:00 +12°C° 0 mm 4 mps 750 mmHg 73%
    12:00 +13°C° 0 mm 5 mps 749 mmHg 67%
    13:00 +13°C° 0 mm 5 mps 749 mmHg 62%
    14:00 +13°C° 0 mm 4 mps 749 mmHg 63%
    15:00 +13°C° 0 mm 4 mps 748 mmHg 65%
    16:00 +12°C° 0 mm 4 mps 747 mmHg 66%
    17:00 +12°C° 0 mm 4 mps 747 mmHg 65%
    18:00 +12°C° 0 mm 5 mps 747 mmHg 64%
    19:00 +12°C° 0 mm 5 mps 747 mmHg 64%
    20:00 +12°C° 0.1 mm 5 mps 746 mmHg 66%
    21:00 +12°C° 0.1 mm 5 mps 746 mmHg 69%
    22:00 +10°C° 0 mm 6 mps 745 mmHg 76%
    23:00 +10°C° 0.7 mm 6 mps 745 mmHg 80%

    Tomorrow, 27 May, Monday

    Time Temperature Precipitation Wind Pressure Humidity
    00:00 +10°C° 0.7 mm 7 mps 745 mmHg 84%
    01:00 +9°C° 0.7 mm 7 mps 744 mmHg 88%
    02:00 +9°C° 0.4 mm 6 mps 744 mmHg 88%
    03:00 +8°C° 0.4 mm 5 mps 744 mmHg 89%
    04:00 +7°C° 0.4 mm 4 mps 744 mmHg 89%
    05:00 +6°C° 0 mm 5 mps 744 mmHg 88%
    06:00 +6°C° 0 mm 5 mps 745 mmHg 86%
    07:00 +5°C° 0 mm 5 mps 745 mmHg 85%
    08:00 +5°C° 0 mm 6 mps 745 mmHg 79%
    09:00 +6°C° 0 mm 7 mps 746 mmHg 74%
    10:00 +7°C° 0 mm 8 mps 746 mmHg 68%
    11:00 +7°C° 0 mm 8 mps 746 mmHg 65%
    12:00 +9°C° 0 mm 8 mps 746 mmHg 62%
    13:00 +10°C° 0 mm 8 mps 746 mmHg 58%
    14:00 +10°C° 0 mm 7 mps 747 mmHg 58%
    15:00 +10°C° 0 mm 7 mps 747 mmHg 58%
    16:00 +10°C° 0 mm 6 mps 747 mmHg 58%
    17:00 +9°C° 0 mm 5 mps 748 mmHg 62%
    18:00 +8°C° 0 mm 5 mps 748 mmHg 67%
    19:00 +7°C° 0 mm 4 mps 749 mmHg 71%
    20:00 +6°C° 0 mm 4 mps 749 mmHg 73%
    21:00 +5°C° 0 mm 3 mps 749 mmHg 76%
    22:00 +5°C° 0 mm 3 mps 750 mmHg 79%
    23:00 +4°C° 0 mm 3 mps 750 mmHg 80%

    Day after tomorrow, 28 May, Tuesday

    Time Temperature Precipitation Wind Pressure Humidity
    00:00 +4°C° 0 mm 3 mps 749 mmHg 81%
    01:00 +4°C° 0 mm 3 mps 749 mmHg 82%
    02:00 +4°C° 0 mm 3 mps 749 mmHg 84%
    03:00 +3°C° 0 mm 3 mps 749 mmHg 86%
    04:00 +3°C° 0 mm 3 mps 749 mmHg 89%
    05:00 +4°C° 0 mm 3 mps 749 mmHg 88%
    06:00 +4°C° 0 mm 3 mps 748 mmHg 86%
    07:00 +5°C° 0 mm 3 mps 748 mmHg 85%
    08:00 +6°C° 0.1 mm 4 mps 748 mmHg 86%
    09:00 +7°C° 0.1 mm 4 mps 748 mmHg 86%
    10:00 +8°C° 0.1 mm 5 mps 748 mmHg 86%
    11:00 +8°C° 0.1 mm 6 mps 747 mmHg 86%
    12:00 +9°C° 0.1 mm 6 mps 747 mmHg 85%
    13:00 +10°C° 0.1 mm 7 mps 746 mmHg 84%
    14:00 +10°C° 0.2 mm 6 mps 745 mmHg 85%
    15:00 +10°C° 0.2 mm 6 mps 745 mmHg 85%
    16:00 +9°C° 0.2 mm 6 mps 744 mmHg 85%
    17:00 +10°C° 0.3 mm 6 mps 744 mmHg 86%
    18:00 +10°C° 0.3 mm 6 mps 744 mmHg 87%
    19:00 +10°C° 0.3 mm 6 mps 743 mmHg 88%
    20:00 +9°C° 0.3 mm 5 mps 743 mmHg 89%
    21:00 +9°C° 0.3 mm 5 mps 743 mmHg 90%
    22:00 +10°C° 0.3 mm 4 mps 743 mmHg 91%
    23:00 +9°C° 0.2 mm 5 mps 743 mmHg 90%

    29 May, Wednesday

    Time Temperature Precipitation Wind Pressure Humidity
    00:00 +8°C° 0.2 mm 5 mps 742 mmHg 89%
    01:00 +8°C° 0.2 mm 5 mps 742 mmHg 88%
    02:00 +8°C° 0.4 mm 5 mps 742 mmHg 87%
    03:00 +8°C° 0.4 mm 6 mps 742 mmHg 86%
    04:00 +8°C° 0.4 mm 6 mps 742 mmHg 86%
    05:00 +7°C° 0.2 mm 5 mps 742 mmHg 86%
    06:00 +7°C° 0.2 mm 5 mps 742 mmHg 85%
    07:00 +6°C° 0.2 mm 5 mps 743 mmHg 85%
    08:00 +5°C° 0.2 mm 6 mps 743 mmHg 82%
    09:00 +7°C° 0.2 mm 6 mps 743 mmHg 78%
    10:00 +6°C° 0.2 mm 7 mps 744 mmHg 75%
    11:00 +8°C° 0.1 mm 7 mps 744 mmHg 69%
    12:00 +8°C° 0.1 mm 7 mps 744 mmHg 62%
    13:00 +9°C° 0.1 mm 8 mps 744 mmHg 56%
    14:00 +8°C° 0.2 mm 7 mps 744 mmHg 58%
    15:00 +8°C° 0.2 mm 6 mps 744 mmHg 61%
    16:00 +8°C° 0.2 mm 5 mps 745 mmHg 63%
    17:00 +6°C° 0 mm 4 mps 745 mmHg 67%
    18:00 +5°C° 0 mm 4 mps 746 mmHg 71%
    19:00 +4°C° 0 mm 3 mps 747 mmHg 75%
    20:00 +3°C° 0 mm 3 mps 747 mmHg 78%
    21:00 +3°C° 0 mm 3 mps 748 mmHg 81%
    22:00 +2°C° 0 mm 3 mps 749 mmHg 83%
    23:00 +2°C° 0 mm 3 mps 749 mmHg 84%

    30 May, Thursday

    Time Temperature Precipitation Wind Pressure Humidity
    00:00 +2°C° 0 mm 3 mps 750 mmHg 85%
    01:00 +2°C° 0 mm 3 mps 750 mmHg 86%
    02:00 +2°C° 0 mm 3 mps 751 mmHg 88%
    03:00 +2°C° 0 mm 3 mps 751 mmHg 89%
    04:00 +2°C° 0 mm 3 mps 752 mmHg 91%
    05:00 +3°C° 0 mm 2 mps 752 mmHg 92%
    06:00 +2°C° 0 mm 2 mps 753 mmHg 92%
    07:00 +2°C° 0 mm 2 mps 754 mmHg 93%
    08:00 +3°C° 0 mm 3 mps 754 mmHg 87%
    09:00 +5°C° 0 mm 3 mps 755 mmHg 81%
    10:00 +7°C° 0 mm 4 mps 756 mmHg 75%
    11:00 +8°C° 0 mm 4 mps 756 mmHg 70%
    12:00 +11°C° 0 mm 4 mps 756 mmHg 65%
    13:00 +12°C° 0 mm 4 mps 756 mmHg 59%
    14:00 +12°C° 0 mm 4 mps 756 mmHg 61%
    15:00 +11°C° 0 mm 4 mps 757 mmHg 62%
    16:00 +11°C° 0 mm 4 mps 757 mmHg 63%
    17:00 +8°C° 0 mm 4 mps 758 mmHg 71%
    18:00 +8°C° 0 mm 3 mps 758 mmHg 78%
    19:00 +5°C° 0 mm 3 mps 759 mmHg 85%
    20:00 +5°C° 0 mm 3 mps 759 mmHg 88%
    21:00 +4°C° 0 mm 3 mps 760 mmHg 90%
    22:00 +5°C° 0 mm 2 mps 760 mmHg 92%
    23:00 +4°C° 0 mm 2 mps 760 mmHg 92%

    31 May, Friday

    Time Temperature Precipitation Wind Pressure Humidity
    00:00 +4°C° 0 mm 2 mps 760 mmHg 93%
    01:00 +4°C° 0 mm 2 mps 761 mmHg 94%
    02:00 +4°C° 0 mm 2 mps 760 mmHg 94%
    03:00 +4°C° 0 mm 2 mps 760 mmHg 94%
    04:00 +4°C° 0 mm 2 mps 760 mmHg 95%
    05:00 +4°C° 0 mm 2 mps 761 mmHg 95%
    06:00 +4°C° 0 mm 2 mps 761 mmHg 95%
    07:00 +4°C° 0 mm 2 mps 761 mmHg 95%
    08:00 +6°C° 0 mm 2 mps 762 mmHg 91%
    09:00 +8°C° 0 mm 3 mps 762 mmHg 86%
    10:00 +10°C° 0 mm 3 mps 762 mmHg 82%
    11:00 +11°C° 0 mm 4 mps 762 mmHg 79%
    12:00 +12°C° 0 mm 4 mps 761 mmHg 76%
    13:00 +13°C° 0 mm 4 mps 761 mmHg 73%
    14:00 +13°C° 0 mm 4 mps 761 mmHg 73%
    15:00 +13°C° 0 mm 4 mps 761 mmHg 74%
    16:00 +13°C° 0 mm 4 mps 760 mmHg 75%
    17:00 +11°C° 0 mm 4 mps 761 mmHg 81%
    18:00 +10°C° 0 mm 4 mps 761 mmHg 87%
    19:00 +8°C° 0 mm 4 mps 761 mmHg 93%
    20:00 +8°C° 0 mm 4 mps 761 mmHg 94%
    21:00 +8°C° 0 mm 3 mps 762 mmHg 94%
    22:00 +8°C° 0 mm 3 mps 762 mmHg 94%
    23:00 +8°C° 0 mm 3 mps 762 mmHg 94%
    Show more